TimeCDT,TemperatureF,Dew PointF,Humidity,Sea Level PressureIn,VisibilityMPH,Wind Direction,Wind SpeedMPH,Gust SpeedMPH,PrecipitationIn,Events,Conditions,WindDirDegrees,DateUTC
12:03 AM,75.2,53.6,47,29.92,10.0,NE,13.8,-,N/A,,Overcast,50,2012-10-19 05:03:00
12:53 AM,75.0,54.0,48,29.93,10.0,NNE,9.2,-,N/A,,Overcast,30,2012-10-19 05:53:00
1:53 AM,73.9,52.0,46,29.93,10.0,NNE,11.5,-,N/A,,Overcast,30,2012-10-19 06:53:00
2:53 AM,73.0,51.1,46,29.93,10.0,NNE,10.4,-,N/A,,Overcast,30,2012-10-19 07:53:00
3:18 AM,73.4,51.8,47,29.93,10.0,NE,12.7,-,N/A,,Overcast,40,2012-10-19 08:18:00
3:37 AM,73.4,51.8,47,29.94,10.0,NE,10.4,-,N/A,,Overcast,40,2012-10-19 08:37:00
3:53 AM,73.0,51.1,46,29.93,10.0,NNE,10.4,-,N/A,,Overcast,30,2012-10-19 08:53:00
4:53 AM,73.0,51.1,46,29.93,10.0,NNE,10.4,-,N/A,,Overcast,30,2012-10-19 09:53:00
5:05 AM,73.4,51.8,47,29.94,10.0,NNE,10.4,-,N/A,,Overcast,30,2012-10-19 10:05:00
5:53 AM,71.1,51.1,49,29.94,10.0,NNE,9.2,-,N/A,,Partly Cloudy,30,2012-10-19 10:53:00
6:53 AM,71.1,51.1,49,29.96,10.0,NE,8.1,-,N/A,,Overcast,40,2012-10-19 11:53:00
7:53 AM,69.1,51.1,53,29.96,10.0,NNE,9.2,-,N/A,,Scattered Clouds,30,2012-10-19 12:53:00
8:53 AM,72.0,51.1,48,29.98,10.0,NE,6.9,-,N/A,,Clear,40,2012-10-19 13:53:00
9:53 AM,73.9,50.0,43,30.01,10.0,ENE,8.1,-,N/A,,Mostly Cloudy,60,2012-10-19 14:53:00
10:53 AM,80.1,51.1,36,30.01,10.0,NE,10.4,-,N/A,,Mostly Cloudy,40,2012-10-19 15:53:00
11:53 AM,82.9,54.0,37,30.00,10.0,ENE,11.5,-,N/A,,Scattered Clouds,70,2012-10-19 16:53:00
12:53 PM,86.0,55.9,36,29.99,10.0,East,9.2,-,N/A,,Overcast,100,2012-10-19 17:53:00
1:53 PM,86.0,55.9,36,29.96,10.0,East,6.9,18.4,N/A,,Scattered Clouds,90,2012-10-19 18:53:00
2:53 PM,87.1,55.9,35,29.93,10.0,ENE,13.8,18.4,N/A,,Scattered Clouds,70,2012-10-19 19:53:00
3:53 PM,86.0,54.0,33,29.91,10.0,ESE,5.8,-,N/A,,Scattered Clouds,120,2012-10-19 20:53:00
4:53 PM,86.0,54.0,33,29.91,10.0,East,11.5,19.6,N/A,,Partly Cloudy,100,2012-10-19 21:53:00
5:53 PM,82.9,53.1,36,29.91,10.0,ESE,11.5,-,N/A,,Clear,110,2012-10-19 22:53:00
6:53 PM,80.1,55.9,43,29.91,10.0,East,11.5,-,N/A,,Clear,100,2012-10-19 23:53:00
7:53 PM,75.9,55.0,48,29.93,10.0,ESE,8.1,-,N/A,,Clear,110,2012-10-20 00:53:00
8:53 PM,73.0,57.0,57,29.94,10.0,ESE,5.8,-,N/A,,Clear,120,2012-10-20 01:53:00
9:53 PM,70.0,57.0,63,29.93,10.0,Calm,Calm,-,N/A,,Clear,0,2012-10-20 02:53:00
10:53 PM,69.1,55.9,63,29.93,10.0,Calm,Calm,-,N/A,,Clear,0,2012-10-20 03:53:00
11:53 PM,68.0,55.9,65,29.92,10.0,Calm,Calm,-,N/A,,Clear,0,2012-10-20 04:53:00